Alexandria, LA

3:13 AM CDT on April 23, 2017 (GMT -0500)
Alexandria International

Weather History for KAEX - February, 2009

Change the Weather History Date:

Monday, February 9, 2009

  Actual Average Record
Temperature  
Mean Temperature 64 °F 51 °F  
Max Temperature 75 °F 62 °F 84 °F (1957)
Min Temperature 53 °F 40 °F 15 °F (1933)
Degree Days  
Heating Degree Days 1 15  
Month to date heating degree days 116 137  
Since 1 July heating degree days 1326 1428  
Growing Degree Days 14 (Base 50)    
Moisture  
Dew Point 56 °F    
Average Humidity 75    
Maximum Humidity 93    
Minimum Humidity 57    
Precipitation  
Precipitation T in 0.15 in 2.79 in (1980)
Month to date precipitation 0.38 1.38  
Year to date precipitation 1.44 6.60  
Snow  
Snow 0.00 in - T in (1973)
Month to date snowfall 0.0  
Since 1 July snowfall 0.0  
Snow Depth 0.00 in    
Sea Level Pressure  
Sea Level Pressure 30.07 in    
Wind  
Wind Speed 11 mph (SSE)    
Max Wind Speed 24 mph    
Max Gust Speed 31 mph    
Visibility 10 miles    
Events Rain    
T = Trace of Precipitation, MM = Missing Value Source: NWS Daily Summary

Daily Weather History Graph

Daily Weather History Graph

Search for Another Location

Airport or City:

Trip Planner

Search our weather history database for the weather conditions in past years. The results will help you decide how hot, cold, wet, or windy it might be!

Date:

Astronomy

Feb. 09, 2009 Rise Set
Actual Time 6:56 AM CST 5:52 PM CST
Civil Twilight 6:31 AM CST 6:17 PM CST
Nautical Twilight 6:02 AM CST 6:46 PM CST
Astronomical Twilight 5:34 AM CST 7:14 PM CST
Moon 6:16 PM CST (2/9) 6:52 AM CST (2/9)
Length of Visible Light 11h 46m
Length of Day
10h 55m
Full, 100% of the Moon is Illuminated
Feb 9
Full
Feb 16
Last Quarter
Feb 24
New
Mar 4
First Quarter
Mar 10
Full

Hourly Weather History & Observations

Time (CST) Temp. Dew Point Humidity Pressure Visibility Wind Dir Wind Speed Gust Speed Precip Events Conditions
12:53 AM 60.1 °F 50.0 °F 69% 30.15 in 10.0 mi SE 10.4 mph - N/A   Clear
1:53 AM 57.9 °F 50.0 °F 75% 30.13 in 10.0 mi SE 11.5 mph - N/A   Clear
2:53 AM 55.9 °F 50.0 °F 80% 30.13 in 10.0 mi SE 9.2 mph - N/A   Clear
3:53 AM 57.0 °F 51.1 °F 81% 30.09 in 10.0 mi SE 9.2 mph - N/A   Clear
4:53 AM 57.0 °F 51.1 °F 81% 30.10 in 10.0 mi SE 11.5 mph - N/A   Clear
5:53 AM 55.0 °F 51.1 °F 86% 30.11 in 10.0 mi SE 8.1 mph - N/A   Partly Cloudy
6:53 AM 54.0 °F 51.1 °F 90% 30.11 in 10.0 mi SE 6.9 mph - N/A   Partly Cloudy
7:53 AM 59.0 °F 53.1 °F 81% 30.13 in 10.0 mi SE 8.1 mph - N/A   Mostly Cloudy
8:53 AM 62.1 °F 54.0 °F 75% 30.13 in 10.0 mi SE 15.0 mph - N/A   Clear
9:53 AM 68.0 °F 55.9 °F 65% 30.12 in 10.0 mi SE 19.6 mph 26.5 mph N/A   Partly Cloudy
10:53 AM 71.1 °F 55.9 °F 59% 30.12 in 10.0 mi SE 17.3 mph - N/A   Mostly Cloudy
11:53 AM 73.9 °F 57.0 °F 55% 30.08 in 10.0 mi South 15.0 mph 26.5 mph N/A   Mostly Cloudy
12:53 PM 73.9 °F 57.0 °F 55% 30.05 in 10.0 mi SSE 19.6 mph 29.9 mph N/A   Mostly Cloudy
1:53 PM 72.0 °F 59.0 °F 64% 30.02 in 10.0 mi South 15.0 mph 21.9 mph 0.00 in Rain Light Rain
2:53 PM 70.0 °F 59.0 °F 68% 30.02 in 7.0 mi South 21.9 mph 29.9 mph 0.00 in Rain Light Rain
3:53 PM 70.0 °F 60.1 °F 71% 30.02 in 10.0 mi South 9.2 mph 17.3 mph 0.00 in   Mostly Cloudy
4:53 PM 70.0 °F 60.1 °F 71% 30.01 in 10.0 mi SSE 11.5 mph 20.7 mph N/A   Overcast
5:53 PM 68.0 °F 61.0 °F 78% 30.02 in 10.0 mi SSE 8.1 mph - N/A   Mostly Cloudy
6:53 PM 64.9 °F 60.1 °F 84% 30.02 in 10.0 mi SSE 6.9 mph - N/A   Mostly Cloudy
7:53 PM 64.0 °F 60.1 °F 87% 30.04 in 10.0 mi SE 4.6 mph - N/A   Overcast
8:53 PM 63.0 °F 61.0 °F 93% 30.03 in 8.0 mi SSE 6.9 mph - N/A   Partly Cloudy
9:53 PM 64.9 °F 61.0 °F 87% 30.02 in 8.0 mi SSE 8.1 mph - N/A   Clear
10:53 PM 63.0 °F 60.1 °F 90% 30.01 in 7.0 mi SE 9.2 mph - N/A   Clear
11:53 PM 66.0 °F 62.1 °F 87% 30.02 in 7.0 mi SSE 5.8 mph - N/A   Mostly Cloudy